KCMH Airport Diagram

We have created a template for each of the higher traffic airports in the vZID airspace. They include KCMH, KCRW, KCVG, KDAY, KIND, KLEX and KSDF. You wil find usefull information including the airport diagram, weather, and specific airport procedures.

KCMH Weather

[Source: ADDS]
METAR
KCMH 260551Z 23006KT 10SM CLR 22/16 A3005 RMK AO2 SLP169 T02170156 10272 20217 53009 =
KCMH 260540Z 2606/2706 21004KT P6SM SKC FM261000 21005KT P6SM FEW150 FM261400 24006KT P6SM FEW150 FM261900 26009KT P6SM FEW050 FM262200 26009KT P6SM SCT060 FM270300 21004KT P6SM FEW150
TAF
KCMH 260540Z 2606/2706 21004KT P6SM SKC FM261000 21005KT P6SM FEW150 FM261400 24006KT P6SM FEW150 FM261900 26009KT P6SM FEW050 FM262200 26009KT P6SM SCT060 FM270300 21004KT P6SM FEW150 =

KCMH Operations

Calm wind runway(s) up to 10 kts: Arriving/Departing 28L/R

Typically, Rw 10R/28L for departures to the West and South and Rw 10L/28R for departures to the North and East.

FBOs: Lane Aviation midfield near Tower, Signature South of Twy B.

Advise ATC if you have updated scenery for KCMH as there are significant changes to the runway/taxiways on the South side of the airport. Default scenery does not match the Airport Diagram available through the usual sources.

JSN Epic template designed by JoomlaShine.com